| time (UTC) | temp C | wind direction | speed KPH | gust KPH | rain 1hr cm | rain 24hr cm | rain mn cm | humidity % | barometer mb |
| 20260506033036 | 8 | 326 | 4.8 | 17.7 | 0.00 | 0.00 | 0.00 | 40 | 1011.0 |
| 20260506031535 | 8 | 37 | 6.4 | 12.9 | 0.00 | 0.00 | 0.00 | 40 | 1010.9 |
| 20260506030043 | 9 | 39 | 4.8 | 16.1 | 0.00 | 0.00 | 0.00 | 39 | 1010.8 |
| 20260506024557 | 9 | 360 | 6.4 | 14.5 | 0.00 | 0.00 | 0.00 | 39 | 1010.7 |
| 20260506023037 | 10 | 304 | 3.2 | 12.9 | 0.00 | 0.00 | 0.00 | 38 | 1010.5 |
| 20260506021536 | 10 | 340 | 3.2 | 8.0 | 0.00 | 0.00 | 0.00 | 37 | 1010.1 |
| 20260506020040 | 10 | 322 | 1.6 | 9.7 | 0.00 | 0.00 | 0.00 | 36 | 1009.9 |
| 20260506014535 | 10 | 303 | 3.2 | 11.3 | 0.00 | 0.00 | 0.00 | 35 | 1009.6 |
| 20260506013058 | 11 | 271 | 4.8 | 12.9 | 0.00 | 0.00 | 0.00 | 35 | 1009.3 |
| 20260506011541 | 11 | 345 | 4.8 | 20.9 | 0.00 | 0.00 | 0.00 | 34 | 1009.0 |
| 20260506010038 | 11 | 304 | 4.8 | 20.9 | 0.00 | 0.00 | 0.00 | 33 | 1008.9 |
| 20260506004536 | 11 | 29 | 4.8 | 12.9 | 0.00 | 0.00 | 0.00 | 33 | 1008.8 |
| 20260506003041 | 12 | 348 | 6.4 | 22.5 | 0.00 | 0.00 | 0.00 | 32 | 1008.6 |
| 20260506001544 | 12 | 347 | 4.8 | 25.7 | 0.00 | 0.00 | 0.00 | 32 | 1008.6 |
| 20260506000040 | 12 | 329 | 3.2 | 16.1 | 0.00 | 0.00 | 0.00 | 31 | 1008.4 |
| 20260505234539 | 12 | 245 | 8.0 | 17.7 | 0.00 | 0.00 | 0.00 | 31 | 1008.5 |
| 20260505233036 | 12 | 271 | 4.8 | 17.7 | 0.00 | 0.00 | 0.00 | 32 | 1008.6 |
| 20260505231538 | 12 | 225 | 6.4 | 17.7 | 0.00 | 0.00 | 0.00 | 31 | 1008.4 |
| 20260505230050 | 13 | 335 | 8.0 | 19.3 | 0.00 | 0.00 | 0.00 | 31 | 1008.4 |
| 20260505224540 | 13 | 332 | 6.4 | 14.5 | 0.00 | 0.00 | 0.00 | 31 | 1008.4 |
| 20260505223053 | 13 | 293 | 9.7 | 19.3 | 0.00 | 0.00 | 0.00 | 31 | 1008.2 |
| 20260505221539 | 13 | 294 | 9.7 | 27.4 | 0.00 | 0.00 | 0.00 | 30 | 1007.9 |
| 20260505220042 | 13 | 287 | 9.7 | 29.0 | 0.00 | 0.00 | 0.00 | 31 | 1008.0 |
| 20260505214536 | 13 | 319 | 9.7 | 25.7 | 0.00 | 0.00 | 0.00 | 32 | 1008.1 |
| 20260505213050 | 13 | 307 | 11.3 | 25.7 | 0.00 | 0.00 | 0.00 | 32 | 1008.2 |
| 20260505211535 | 13 | 203 | 4.8 | 17.7 | 0.00 | 0.00 | 0.00 | 33 | 1007.9 |
| 20260505210032 | 13 | 303 | 11.3 | 29.0 | 0.00 | 0.00 | 0.00 | 30 | 1008.1 |
| 20260505204540 | 13 | 294 | 8.0 | 25.7 | 0.00 | 0.00 | 0.00 | 32 | 1008.2 |
| 20260505203044 | 13 | 336 | 8.0 | 17.7 | 0.00 | 0.00 | 0.00 | 33 | 1008.4 |
| 20260505201537 | 13 | 265 | 9.7 | 29.0 | 0.00 | 0.00 | 0.00 | 33 | 1008.5 |
| 20260505200035 | 13 | 325 | 9.7 | 25.7 | 0.00 | 0.00 | 0.00 | 34 | 1008.5 |
| 20260505194540 | 12 | 279 | 8.0 | 20.9 | 0.00 | 0.00 | 0.00 | 34 | 1008.7 |
| 20260505193045 | 12 | 264 | 8.0 | 19.3 | 0.00 | 0.00 | 0.00 | 36 | 1008.6 |
| 20260505191544 | 12 | 298 | 12.9 | 24.1 | 0.00 | 0.00 | 0.00 | 36 | 1008.9 |
| 20260505190040 | 12 | 304 | 8.0 | 22.5 | 0.00 | 0.00 | 0.00 | 36 | 1008.7 |
| 20260505184540 | 12 | 272 | 6.4 | 20.9 | 0.00 | 0.00 | 0.00 | 37 | 1008.7 |
| 20260505183038 | 12 | 255 | 8.0 | 25.7 | 0.00 | 0.00 | 0.00 | 37 | 1008.6 |
| 20260505181539 | 12 | 297 | 9.7 | 25.7 | 0.00 | 0.00 | 0.00 | 34 | 1008.5 |
| 20260505180038 | 12 | 281 | 8.0 | 19.3 | 0.00 | 0.00 | 0.00 | 32 | 1008.2 |
| 20260505174535 | 12 | 243 | 11.3 | 24.1 | 0.00 | 0.00 | 0.00 | 37 | 1008.2 |
| 20260505173046 | 12 | 321 | 6.4 | 25.7 | 0.00 | 0.00 | 0.00 | 37 | 1008.5 |
| 20260505171539 | 12 | 229 | 14.5 | 24.1 | 0.00 | 0.00 | 0.00 | 37 | 1008.3 |
| 20260505170039 | 12 | 264 | 11.3 | 25.7 | 0.00 | 0.00 | 0.00 | 37 | 1008.0 |
| 20260505164549 | 11 | 283 | 11.3 | 30.6 | 0.00 | 0.00 | 0.00 | 36 | 1007.8 |
| 20260505163102 | 11 | 240 | 12.9 | 30.6 | 0.00 | 0.00 | 0.00 | 37 | 1008.4 |
| 20260505161544 | 11 | 62 | 6.4 | 27.4 | 0.00 | 0.00 | 0.00 | 41 | 1008.2 |
| 20260505153049 | 11 | 255 | 14.5 | 27.4 | 0.00 | 0.00 | 0.00 | 40 | 1008.0 |
| 20260505151543 | 11 | 243 | 11.3 | 24.1 | 0.00 | 0.00 | 0.00 | 41 | 1008.2 |
| 20260505124540 | 8 | 283 | 4.8 | 11.3 | 0.00 | 0.00 | 0.00 | 46 | 1008.7 |
| 20260505123037 | 8 | 288 | 6.4 | 12.9 | 0.00 | 0.00 | 0.00 | 48 | 1008.0 |
| 20260505121537 | 7 | 247 | 3.2 | 11.3 | 0.00 | 0.00 | 0.00 | 50 | 1008.7 |
| 20260505120040 | 7 | 257 | 4.8 | 8.0 | 0.00 | 0.00 | 0.00 | 49 | 1008.1 |
| 20260505114544 | 7 | 0 | 1.6 | 6.4 | 0.00 | 0.00 | 0.00 | 49 | 1007.5 |
| 20260505113037 | 7 | 355 | 0.0 | 3.2 | 0.00 | 0.00 | 0.00 | 50 | 1006.8 |
| 20260505111549 | 7 | 283 | 3.2 | 9.7 | 0.00 | 0.00 | 0.00 | 48 | 1007.3 |
| 20260505101539 | 7 | 295 | 4.8 | 14.5 | 0.00 | 0.00 | 0.00 | 46 | 1006.3 |
| 20260505100042 | 7 | 333 | 3.2 | 11.3 | 0.00 | 0.00 | 0.00 | 46 | 1005.9 |
| 20260505094536 | 8 | 310 | 4.8 | 16.1 | 0.00 | 0.00 | 0.00 | 46 | 1006.2 |
| 20260505093035 | 8 | 316 | 3.2 | 12.9 | 0.00 | 0.00 | 0.00 | 48 | 1006.3 |
| 20260505091551 | 8 | 288 | 4.8 | 14.5 | 0.00 | 0.00 | 0.00 | 47 | 1006.2 |
| 20260505090050 | 8 | 337 | 6.4 | 14.5 | 0.00 | 0.00 | 0.00 | 48 | 1005.7 |
| 20260505084536 | 8 | 330 | 4.8 | 9.7 | 0.00 | 0.00 | 0.00 | 48 | 1005.3 |
| 20260505083042 | 8 | 359 | 8.0 | 20.9 | 0.00 | 0.00 | 0.00 | 47 | 1005.1 |
| 20260505081550 | 9 | 4 | 6.4 | 14.5 | 0.00 | 0.00 | 0.00 | 48 | 1004.8 |
| 20260505080041 | 9 | 337 | 4.8 | 22.5 | 0.00 | 0.00 | 0.00 | 47 | 1004.2 |
| 20260505074559 | 10 | 328 | 9.7 | 17.7 | 0.00 | 0.00 | 0.00 | 46 | 1004.0 |
| 20260505073038 | 10 | 21 | 4.8 | 25.7 | 0.00 | 0.00 | 0.00 | 46 | 1004.0 |
| 20260505071536 | 10 | 338 | 4.8 | 17.7 | 0.00 | 0.00 | 0.00 | 47 | 1003.8 |
| 20260505070036 | 11 | 317 | 3.2 | 22.5 | 0.00 | 0.00 | 0.00 | 46 | 1003.5 |
| 20260505064537 | 11 | 327 | 8.0 | 27.4 | 0.00 | 0.00 | 0.00 | 45 | 1003.2 |
| 20260505063041 | 11 | 282 | 4.8 | 19.3 | 0.00 | 0.00 | 0.00 | 45 | 1003.1 |
| 20260505061601 | 12 | 321 | 9.7 | 24.1 | 0.00 | 0.00 | 0.00 | 44 | 1003.0 |
| 20260505060044 | 12 | 308 | 4.8 | 16.1 | 0.00 | 0.00 | 0.00 | 44 | 1003.1 |
| 20260505054541 | 13 | 12 | 6.4 | 19.3 | 0.00 | 0.00 | 0.00 | 42 | 1002.9 |
| 20260505053035 | 14 | 340 | 9.7 | 29.0 | 0.00 | 0.00 | 0.00 | 40 | 1002.4 |
| 20260505051541 | 14 | 302 | 6.4 | 14.5 | 0.00 | 0.00 | 0.00 | 37 | 1002.0 |
| 20260505041535 | 16 | 326 | 6.4 | 19.3 | 0.00 | 0.00 | 0.00 | 33 | 1000.7 |
| 20260505040041 | 16 | 11 | 9.7 | 19.3 | 0.00 | 0.00 | 0.00 | 32 | 1000.4 |
| 20260505034540 | 17 | 290 | 4.8 | 17.7 | 0.00 | 0.00 | 0.00 | 31 | 1000.5 |